Durant, OK

12:30 PM CDT on October 20, 2019 (GMT -0500)
Eaker

Weather History for KDUA - September, 2019

Change the Weather History Date:

Saturday, September 21, 2019

  Actual Average (KMLC) Record (KMLC)
Temperature  
Mean Temperature 82 °F -  
Max Temperature 91 °F 81 °F 99 °F (2012)
Min Temperature 73 °F 60 °F 42 °F (1983)
Cooling Degree Days 17    
Growing Degree Days 32 (Base 50)    
Moisture  
Dew Point 70 °F    
Average Humidity 71    
Maximum Humidity 94    
Minimum Humidity 43    
Precipitation  
Precipitation 0.00 in - - ()
Sea Level Pressure  
Sea Level Pressure 30.04 in    
Wind  
Wind Speed 9 mph (SSE)    
Max Wind Speed 18 mph    
Max Gust Speed 24 mph    
Visibility 10 miles    
Events      
Averages and records for this station are not official NWS values.
T = Trace of Precipitation, MM = Missing Value Source: NWS Daily Summary

Daily Weather History Graph

Daily Weather History Graph

Search for Another Location

Airport or City:

Astronomy

Sep. 21, 2019 Rise Set
Actual Time 7:12 AM CDT 7:23 PM CDT
Civil Twilight 6:47 AM CDT 7:48 PM CDT
Nautical Twilight 6:18 AM CDT 8:17 PM CDT
Astronomical Twilight 5:49 AM CDT 8:47 PM CDT
Moon No Moon Rise 2:02 PM CDT (9/21)
Length of Visible Light 13h 01m
Length of Day
12h 11m
Waning Gibbous, 54% of the Moon is Illuminated
Sep 21
Waning Gibbous
Sep 21
Last Quarter
Sep 28
New
Oct 5
First Quarter
Oct 13
Full

Hourly Weather History & Observations

Time (CDT) Temp. Heat Index Dew Point Humidity Pressure Visibility Wind Dir Wind Speed Gust Speed Precip Events Conditions
12:16 AM 73.4 °F - 71.6 °F 94% 30.04 in 10.0 mi SE 3.5 mph - N/A   Clear
12:35 AM 73.4 °F - 71.6 °F 94% 30.04 in 10.0 mi SSE 3.5 mph - N/A   Clear
12:56 AM 73.4 °F - 71.6 °F 94% 30.04 in 10.0 mi SSE 5.8 mph - N/A   Clear
1:35 AM 75.2 °F - 71.6 °F 89% 30.04 in 10.0 mi SSE 6.9 mph - N/A   Clear
2:37 AM 75.2 °F - 71.6 °F 89% 30.04 in 10.0 mi SSE 6.9 mph - N/A   Clear
2:55 AM 75.2 °F - 71.6 °F 89% 30.04 in 10.0 mi SSE 6.9 mph - N/A   Mostly Cloudy
3:37 AM 75.2 °F - 71.6 °F 89% 30.04 in 10.0 mi SSE 8.1 mph - N/A   Clear
3:55 AM 75.2 °F - 71.6 °F 89% 30.04 in 10.0 mi SSE 6.9 mph - N/A   Scattered Clouds
4:15 AM 73.4 °F - 71.6 °F 94% 30.04 in 10.0 mi SSE 8.1 mph - N/A   Scattered Clouds
4:35 AM 73.4 °F - 71.6 °F 94% 30.05 in 10.0 mi SSE 6.9 mph - N/A   Clear
4:55 AM 73.4 °F - 71.6 °F 94% 30.05 in 10.0 mi South 6.9 mph - N/A   Mostly Cloudy
5:15 AM 73.4 °F - 71.6 °F 94% 30.05 in 10.0 mi South 6.9 mph - N/A   Scattered Clouds
5:55 AM 73.4 °F - 71.6 °F 94% 30.05 in 10.0 mi South 10.4 mph - N/A   Mostly Cloudy
6:55 AM 75.2 °F - 71.6 °F 89% 30.07 in 10.0 mi South 10.4 mph - N/A   Mostly Cloudy
7:15 AM 75.2 °F - 71.6 °F 89% 30.07 in 10.0 mi South 6.9 mph - N/A   Mostly Cloudy
7:36 AM 75.2 °F - 73.4 °F 94% 30.08 in 10.0 mi SSE 8.1 mph - N/A   Overcast
7:56 AM 75.2 °F - 73.4 °F 94% 30.09 in 10.0 mi South 9.2 mph - N/A   Overcast
8:35 AM 77.0 °F - 73.4 °F 89% 30.10 in 10.0 mi SSE 11.5 mph - N/A   Overcast
9:16 AM 78.8 °F - 71.6 °F 78% 30.11 in 10.0 mi South 10.4 mph 17.3 mph N/A   Overcast
9:55 AM 78.8 °F - 71.6 °F 78% 30.11 in 10.0 mi South 13.8 mph 18.4 mph N/A   Overcast
10:16 AM 80.6 °F 85.4 °F 73.4 °F 79% 30.11 in 10.0 mi South 11.5 mph 17.3 mph N/A   Overcast
11:17 AM 82.4 °F 87.2 °F 71.6 °F 70% 30.11 in 10.0 mi South 13.8 mph 18.4 mph N/A   Overcast
12:15 PM 84.2 °F 89.6 °F 71.6 °F 66% 30.10 in 10.0 mi SSW 11.5 mph - N/A   Overcast
12:37 PM 86.0 °F 91.8 °F 71.6 °F 62% 30.09 in 10.0 mi South 15.0 mph 18.4 mph N/A   Mostly Cloudy
12:55 PM 87.8 °F 93.8 °F 71.6 °F 58% 30.08 in 10.0 mi South 13.8 mph - N/A   Scattered Clouds
1:15 PM 87.8 °F 92.6 °F 69.8 °F 55% 30.07 in 10.0 mi South 13.8 mph 20.7 mph N/A   Scattered Clouds
1:35 PM 87.8 °F 92.6 °F 69.8 °F 55% 30.06 in 10.0 mi South 17.3 mph 24.2 mph N/A   Scattered Clouds
2:15 PM 89.6 °F 93.4 °F 68.0 °F 49% 30.05 in 10.0 mi South 17.3 mph 23.0 mph N/A   Mostly Cloudy
2:35 PM 89.6 °F 93.4 °F 68.0 °F 49% 30.04 in 10.0 mi South 18.4 mph 23.0 mph N/A   Mostly Cloudy
2:58 PM 91.4 °F 95.4 °F 68.0 °F 46% 30.03 in 10.0 mi South 17.3 mph 23.0 mph N/A   Scattered Clouds
3:15 PM 91.4 °F 95.4 °F 68.0 °F 46% 30.02 in 10.0 mi South 15.0 mph 20.7 mph N/A   Scattered Clouds
3:37 PM 91.4 °F 94.0 °F 66.2 °F 43% 30.01 in 10.0 mi South 16.1 mph 24.2 mph N/A   Clear
3:55 PM 91.4 °F 94.0 °F 66.2 °F 43% 30.01 in 10.0 mi South 17.3 mph 23.0 mph N/A   Scattered Clouds
4:57 PM 91.4 °F 94.0 °F 66.2 °F 43% 30.00 in 10.0 mi SSE 13.8 mph 20.7 mph N/A   Scattered Clouds
5:17 PM 91.4 °F 94.0 °F 66.2 °F 43% 30.00 in 10.0 mi SSE 13.8 mph - N/A   Scattered Clouds
5:55 PM 89.6 °F 92.2 °F 66.2 °F 46% 29.98 in 10.0 mi SSE 15.0 mph 19.6 mph N/A   Mostly Cloudy
6:15 PM 89.6 °F 92.2 °F 66.2 °F 46% 29.98 in 10.0 mi SSE 11.5 mph 19.6 mph N/A   Scattered Clouds
6:57 PM 87.8 °F 89.4 °F 64.4 °F 46% 29.99 in 10.0 mi SSE 10.4 mph - N/A   Clear
7:15 PM 86.0 °F 88.2 °F 66.2 °F 51% 29.99 in 10.0 mi SE 9.2 mph - N/A   Clear
7:37 PM 84.2 °F 87.3 °F 68.0 °F 58% 29.99 in 10.0 mi SE 5.8 mph - N/A   Clear
7:55 PM 82.4 °F 86.3 °F 69.8 °F 66% 29.99 in 10.0 mi SE 6.9 mph - N/A   Clear
8:16 PM 82.4 °F 86.3 °F 69.8 °F 66% 29.99 in 10.0 mi SE 8.1 mph - N/A   Clear
8:37 PM 80.6 °F 83.9 °F 69.8 °F 70% 30.00 in 10.0 mi SSE 5.8 mph - N/A   Clear
8:57 PM 80.6 °F 83.9 °F 69.8 °F 70% 30.00 in 10.0 mi SE 6.9 mph - N/A   Clear
9:36 PM 80.6 °F 83.9 °F 69.8 °F 70% 30.01 in 10.0 mi Calm Calm - N/A   Clear
9:57 PM 80.6 °F 83.9 °F 69.8 °F 70% 30.01 in 10.0 mi SSE 9.2 mph - N/A   Clear
10:17 PM 80.6 °F 83.9 °F 69.8 °F 70% 30.01 in 10.0 mi SE 8.1 mph - N/A   Clear
10:37 PM 78.8 °F - 69.8 °F 74% 30.01 in 10.0 mi SSE 8.1 mph - N/A   Clear
10:56 PM 78.8 °F - 69.8 °F 74% 30.00 in 10.0 mi SSE 8.1 mph - N/A   Clear
11:17 PM 78.8 °F - 69.8 °F 74% 30.00 in 10.0 mi SSE 10.4 mph - N/A   Clear
11:36 PM 78.8 °F - 69.8 °F 74% 30.00 in 10.0 mi SSE 10.4 mph - N/A   Clear
11:55 PM 78.8 °F - 69.8 °F 74% 30.01 in 10.0 mi SSE 12.7 mph 17.3 mph N/A   Clear